GEFSSE_500_meanwind_180.txt.gz
Wind_Speed
20 19 18 17 16 16 15 15 14 14 13 13 12 11 11 11 10 10 9 8 8 8 7 7 7 6 6 6 6 6 6 6 6 6 6 7 7 7 7 7 7 7 8
21 20 20 19 18 17 16 16 16 16 15 14 13 13 12 12 12 11 10 10 9 9 9 8 8 8 8 7 8 8 8 8 8 8 8 8 8 8 9 9 8 8 9
23 22 21 20 19 18 18 17 17 17 16 16 15 14 14 14 13 13 12 11 11 11 10 10 10 10 10 9 9 9 10 10 10 9 10 10 10 10 10 10 10 10 10
25 24 23 22 21 20 19 19 18 18 18 17 16 16 15 15 15 14 14 13 13 13 12 12 11 11 11 11 11 11 11 11 11 11 11 11 11 11 11 11 11 12 12
26 25 24 23 22 21 21 20 20 19 19 19 18 17 17 16 16 16 15 15 14 14 14 14 14 13 13 13 13 13 13 13 13 13 13 13 13 12 12 12 13 13 14
27 26 25 25 24 23 22 22 21 20 20 20 19 19 19 18 17 17 16 16 16 15 15 15 15 15 15 15 15 15 15 15 15 15 15 14 14 14 14 14 15 15 16
26 26 26 26 26 25 24 23 23 22 21 21 21 20 20 19 19 18 18 17 17 16 16 16 16 17 17 17 16 17 17 17 17 17 17 17 16 16 16 17 17 17 18
27 27 26 26 27 27 26 25 25 24 22 22 22 21 21 21 20 20 19 19 18 18 18 18 18 18 18 18 18 18 18 18 18 18 19 19 19 19 19 19 19 19 19
28 28 27 27 27 27 28 27 27 26 25 23 23 23 22 21 21 21 21 20 19 19 19 19 19 19 19 19 20 19 19 19 19 20 20 20 21 21 21 20 21 21 21
28 28 29 29 29 28 28 28 27 27 26 25 24 24 23 23 22 22 22 21 21 21 21 21 21 21 21 21 21 21 21 21 21 21 22 22 22 23 23 23 23 23 23
29 28 29 30 30 30 29 28 28 28 27 26 25 24 24 24 23 23 23 23 22 22 23 23 23 23 24 24 24 24 24 24 24 24 24 24 24 25 25 25 25 25 25
28 28 29 30 31 31 30 29 29 28 27 27 26 25 25 25 24 23 23 24 24 24 25 25 25 26 26 26 26 27 27 27 26 26 27 27 27 27 27 26 26 26 26
28 28 29 30 31 31 30 30 30 29 29 28 27 27 27 27 26 25 25 25 25 25 26 26 27 27 27 28 28 29 29 29 29 29 29 29 29 28 28 28 27 27 27
28 30 30 31 31 31 31 31 32 31 29 29 29 29 28 28 28 27 27 27 27 27 27 27 28 29 29 29 30 30 30 30 31 31 30 30 30 29 29 29 29 29 28
27 28 31 31 32 32 32 33 32 32 31 30 30 30 30 29 29 29 28 28 28 28 28 28 29 29 30 30 31 31 31 31 31 31 30 31 31 31 30 30 30 30 30
28 28 30 31 32 32 33 34 33 32 32 31 31 31 30 30 30 30 30 29 29 29 29 30 30 30 31 31 31 32 32 33 33 33 32 32 32 32 31 31 31 30 30
28 28 29 30 31 32 33 34 34 33 32 32 32 31 30 30 31 31 30 30 29 29 30 30 30 31 32 32 32 33 33 33 33 33 32 32 32 33 32 32 32 32 31
27 28 28 29 31 31 32 32 34 33 32 32 32 32 32 31 31 31 31 30 29 29 30 30 31 32 32 33 33 33 34 33 33 33 33 33 33 34 34 33 33 32 32
25 26 27 28 30 31 31 31 33 33 33 33 33 33 33 32 32 32 31 31 31 30 31 32 32 32 33 34 34 34 34 34 33 33 34 33 33 34 35 34 34 34 34
23 25 26 27 28 31 32 31 33 34 34 34 34 33 33 32 32 31 31 30 31 31 31 31 32 33 33 34 34 33 34 34 34 33 34 35 35 35 35 36 36 35 35
23 25 27 26 28 29 29 30 32 33 32 32 34 33 33 32 31 30 30 30 31 31 31 31 31 32 32 32 32 33 34 34 34 34 35 35 36 36 36 37 37 37 37
22 23 26 27 29 29 30 30 32 33 33 32 33 32 32 32 32 32 32 31 30 30 31 30 30 30 30 30 31 32 32 33 34 35 35 35 36 37 38 38 38 39 39
22 23 25 28 28 27 26 28 29 31 33 33 32 32 32 32 32 31 32 32 31 31 31 30 29 29 29 29 29 31 32 32 33 33 35 36 37 38 39 40 40 39 39
23 25 25 27 27 26 26 26 28 30 31 31 31 32 32 33 32 32 31 31 30 30 30 30 30 31 30 30 29 30 32 32 33 33 34 35 36 37 39 41 41 41 41
25 25 26 26 27 27 26 27 28 30 31 31 31 31 32 33 32 32 32 32 31 31 30 30 30 30 31 30 30 31 32 33 33 34 33 34 36 37 38 39 40 41 42
27 26 26 27 27 27 27 26 28 30 31 32 31 30 31 33 32 33 33 33 33 33 33 32 31 31 31 31 31 32 32 33 34 34 34 35 35 36 37 38 39 40 40

GEFSSE_500_meanwind_186.txt.gz
Wind_Speed
21 20 20 19 18 17 16 16 15 15 15 14 14 13 13 12 12 11 11 11 10 9 9 9 8 8 7 7 7 6 6 6 5 5 6 6 6 6 7 7 7 7 7
23 22 22 21 20 19 18 18 17 16 16 16 15 15 14 14 13 13 12 12 12 11 10 10 9 9 9 8 8 8 8 8 8 8 8 8 8 8 8 8 8 8 8
25 24 24 23 22 20 19 19 18 18 17 17 16 16 15 15 15 14 14 13 13 13 12 12 11 11 10 10 10 9 9 9 9 9 9 9 10 10 10 10 9 9 10
27 26 25 24 23 22 21 20 20 19 19 18 17 17 17 17 16 16 16 15 15 14 14 14 13 13 12 12 12 11 11 11 11 11 11 11 11 11 11 11 11 11 11
28 27 27 25 25 24 22 22 21 20 20 19 19 18 18 18 18 18 17 16 16 16 16 15 15 14 14 14 13 13 13 13 12 12 13 13 13 13 13 13 13 13 13
30 28 28 27 26 25 24 23 23 21 21 20 20 20 20 20 19 19 18 18 17 17 17 16 16 16 15 15 15 15 14 14 14 14 14 14 14 14 14 15 15 15 15
31 30 29 28 27 26 25 25 25 23 22 22 22 21 21 21 20 20 20 19 19 18 18 17 17 17 17 17 17 16 16 16 16 16 16 16 16 16 16 16 16 16 16
33 32 30 29 28 27 26 26 26 25 24 24 23 22 22 21 21 21 21 21 20 20 19 19 18 18 18 18 18 18 18 18 18 18 18 18 18 18 18 18 18 18 18
33 32 31 30 28 28 27 27 26 25 25 25 25 24 23 22 22 23 23 22 22 21 21 20 20 19 19 20 20 20 20 19 19 19 19 20 20 20 20 20 20 20 20
31 31 31 30 29 28 28 28 27 26 26 27 26 25 24 24 23 23 24 24 23 22 22 22 21 21 21 21 21 21 21 21 21 21 21 21 21 22 22 22 22 22 22
29 29 29 29 29 29 28 28 28 27 27 27 27 26 25 24 24 24 24 25 25 24 23 23 23 23 23 23 23 23 23 23 23 23 23 23 23 24 24 24 24 23 23
27 28 28 29 30 30 30 30 29 29 28 28 27 27 26 26 25 25 25 25 25 25 25 24 24 24 24 24 24 25 25 25 25 25 25 25 25 25 25 25 25 25 25
28 28 28 29 31 31 31 31 30 29 29 29 28 27 27 27 26 26 26 26 25 25 25 25 25 25 25 25 25 25 25 25 25 26 26 26 26 27 27 27 27 27 27
28 28 28 29 30 30 31 31 30 29 29 29 29 28 27 27 26 27 26 27 27 26 26 26 25 25 26 26 26 26 26 26 26 27 27 27 27 28 28 28 29 29 29
27 27 28 28 29 30 30 30 30 29 29 29 29 28 28 28 27 28 28 28 28 28 27 27 27 26 25 26 26 27 27 27 28 28 28 28 28 29 29 29 30 30 30
27 27 28 29 29 29 29 30 31 31 30 30 29 29 29 29 28 28 28 28 28 28 28 28 27 27 26 26 26 27 27 27 28 28 29 29 30 31 31 30 31 31 30
27 27 28 29 29 29 28 29 30 31 31 30 30 30 30 30 30 29 28 29 29 29 29 28 27 27 26 27 27 27 28 28 29 30 30 31 31 31 31 31 31 30 31
27 27 26 27 28 29 29 29 30 31 31 31 30 30 31 31 31 30 29 29 30 30 29 29 28 28 28 28 28 28 29 29 30 31 32 32 32 31 31 31 31 31 31
27 27 27 26 26 28 29 29 29 30 31 31 31 31 32 33 33 33 31 31 31 31 31 30 29 29 29 29 30 30 30 30 31 31 31 32 31 31 31 31 32 32 32
27 26 26 28 27 28 29 29 29 29 31 32 33 32 33 34 33 32 31 31 31 31 31 30 30 31 31 31 31 32 32 32 31 32 32 32 32 31 31 31 32 32 32
28 28 27 28 29 29 31 31 30 31 32 33 34 33 35 35 35 34 33 32 31 30 31 31 30 31 31 32 32 32 33 33 33 33 32 32 32 31 31 31 32 32 32
28 28 28 29 30 30 30 31 31 32 34 36 35 35 36 36 36 36 35 33 33 32 32 32 32 32 32 31 31 31 31 31 32 32 32 32 31 30 31 32 32 32 33
27 28 28 28 29 29 29 30 31 33 33 35 35 36 36 36 36 36 36 36 34 33 32 32 32 31 31 31 31 31 31 30 31 31 31 31 31 31 32 32 32 33 33
28 29 28 29 28 27 29 30 30 32 33 33 33 34 34 34 34 34 35 35 34 33 32 32 32 32 31 31 31 31 31 30 29 29 30 30 31 31 32 33 33 33 34
29 29 29 29 30 29 28 30 30 31 32 33 33 34 34 34 36 35 36 35 35 34 34 34 33 34 33 33 33 33 32 31 30 29 29 30 30 31 32 33 34 35 36
29 30 30 31 31 31 32 32 31 31 32 34 34 34 36 37 37 37 36 36 36 36 36 36 35 35 35 34 34 34 33 32 31 31 31 31 31 31 32 34 35 37 37

GEFSSE_500_meanwind_192.txt.gz
Wind_Speed
19 19 18 17 17 16 16 15 14 14 14 13 12 13 13 12 12 12 11 11 10 10 10 10 9 9 8 8 7 7 7 6 6 6 6 6 6 7 7 7 7 7 7
21 21 20 19 19 18 18 17 16 16 16 15 14 14 14 14 14 14 13 13 12 12 11 11 11 10 10 9 9 8 8 8 8 8 8 8 8 8 8 8 8 8 8
23 22 22 21 21 20 20 19 18 17 17 17 16 16 16 16 15 15 14 14 14 13 13 13 12 12 11 11 10 10 10 9 9 9 9 9 10 10 10 10 10 10 10
24 24 23 23 23 23 22 21 20 19 19 19 18 18 17 17 16 16 15 15 15 14 14 14 14 13 13 13 12 12 11 11 11 11 11 11 11 11 11 11 11 11 12
25 25 25 24 24 24 23 23 22 21 20 20 20 19 19 18 17 17 16 16 16 16 16 16 15 15 15 14 14 14 13 13 13 12 12 12 12 12 12 13 13 13 14
26 26 26 26 26 26 25 24 23 22 22 21 21 20 20 19 19 18 18 18 17 18 18 17 17 16 16 16 16 15 15 15 15 14 14 14 14 14 14 14 15 15 15
27 27 27 27 27 27 27 26 25 24 23 22 22 22 21 21 20 20 19 19 19 19 19 18 18 17 17 17 17 17 17 16 16 16 16 16 15 15 15 16 16 17 17
28 27 28 28 28 28 28 27 26 26 25 24 23 22 22 22 22 21 21 20 20 20 20 20 19 19 18 18 18 18 18 18 18 18 18 17 17 17 17 18 18 18 18
28 28 28 28 29 29 28 28 27 26 26 26 25 24 23 23 23 23 22 22 22 22 22 21 21 20 20 20 19 19 19 20 19 19 19 19 18 18 18 18 19 19 19
28 28 28 29 29 29 28 28 27 27 27 27 26 26 25 24 24 24 24 23 23 23 22 22 22 21 21 21 21 20 21 21 21 21 21 21 20 20 20 20 21 21 21
27 27 27 28 29 29 29 29 28 28 28 27 27 26 26 25 25 25 25 24 24 23 23 23 23 22 22 22 22 22 21 22 22 22 22 22 22 22 22 23 22 22 23
27 27 28 28 28 29 29 30 29 29 28 28 27 26 26 26 26 25 25 25 25 25 24 24 24 24 24 23 22 22 22 23 23 23 24 24 24 24 24 24 24 24 24
27 27 28 28 28 29 29 29 29 29 29 28 28 27 27 26 26 25 25 25 25 26 26 25 25 25 24 24 24 24 24 23 23 24 25 25 25 25 25 25 25 25 25
27 27 28 29 30 29 28 29 28 29 29 29 29 28 28 27 26 26 26 26 26 26 27 26 26 26 26 25 25 25 25 25 25 25 25 25 25 25 26 26 26 26 26
27 28 29 29 29 29 29 29 29 29 30 30 30 30 29 28 28 28 27 27 26 26 27 27 27 27 27 27 27 26 25 26 25 26 26 26 26 26 27 27 27 28 28
27 28 29 30 30 29 29 29 29 29 30 30 31 30 30 29 29 29 29 28 28 27 27 27 27 27 27 27 27 27 26 27 27 27 27 27 28 28 28 28 28 28 28
26 28 28 30 31 31 29 29 28 29 30 31 31 31 30 30 30 29 29 28 28 27 27 28 28 28 28 27 28 28 27 27 27 28 28 28 28 29 30 30 30 30 29
25 26 28 29 30 30 28 28 29 30 31 31 31 31 31 31 30 30 30 29 29 29 29 29 29 29 29 29 28 28 29 28 28 29 29 29 29 30 30 31 31 30 30
24 26 29 29 29 29 28 27 29 31 32 31 31 32 32 33 32 32 31 31 31 30 30 30 30 31 30 30 30 30 30 30 29 29 30 30 30 31 31 31 31 31 31
24 26 28 29 29 30 29 28 29 31 33 33 32 33 34 34 34 34 33 33 33 32 32 31 31 32 32 32 32 32 31 31 30 30 30 30 30 30 31 31 32 32 32
24 25 28 28 30 30 29 28 30 31 32 33 34 34 34 35 35 35 36 35 35 35 34 33 32 33 32 32 33 32 32 32 31 31 31 31 30 30 30 30 31 32 32
24 26 27 28 29 30 31 30 31 31 32 33 34 35 35 35 36 36 37 37 37 36 36 35 34 34 34 34 33 33 34 34 33 32 32 31 30 30 30 30 30 31 32
24 25 27 29 29 30 30 30 32 32 33 35 36 36 36 37 37 37 38 39 38 38 37 37 36 35 35 35 35 35 35 35 34 33 33 32 31 30 30 31 31 31 31
25 26 27 28 30 31 30 30 31 32 33 33 34 35 36 38 39 39 40 38 38 38 38 37 37 36 36 36 36 35 35 35 35 34 33 33 32 32 32 32 31 31 32
26 27 26 28 30 31 31 30 30 31 32 33 33 34 36 36 38 39 40 39 38 38 38 38 37 37 38 37 37 37 37 37 36 35 34 34 34 34 33 33 33 33 33
28 28 28 29 30 31 31 31 33 33 34 35 34 35 37 38 37 38 39 40 41 40 40 40 39 38 39 39 39 38 38 37 37 36 36 36 35 35 34 34 34 34 34

GEFSSE_500_meanwind_198.txt.gz
Wind_Speed
17 16 16 15 15 14 14 14 13 12 12 11 11 11 10 10 10 10 9 8 7 7 7 7 7 7 7 6 6 6 6 5 6 6 6 6 6 6 7 7 7 7 7
18 18 17 16 16 16 15 15 15 14 13 13 13 12 12 11 11 11 10 10 9 8 8 8 8 8 8 8 8 7 7 7 7 7 7 8 8 8 8 8 8 8 9
21 20 19 18 18 18 17 17 16 16 15 15 14 14 13 12 12 12 12 11 10 10 9 9 9 9 9 9 10 9 9 9 9 9 9 9 9 9 10 10 10 10 10
22 21 21 21 20 20 19 19 18 18 17 16 16 15 15 14 14 13 13 13 12 11 11 10 10 10 11 11 11 11 11 11 11 10 10 10 11 11 11 11 11 12 12
24 23 23 22 22 21 21 20 19 19 18 18 17 17 16 16 15 15 14 14 14 13 12 12 12 12 12 12 12 12 13 12 12 12 12 12 12 12 12 12 12 13 13
25 26 25 25 24 23 22 21 20 19 19 18 18 18 18 17 17 16 16 16 15 15 14 14 14 13 13 13 13 13 14 14 13 13 13 13 14 14 13 13 14 14 14
27 27 27 26 25 25 24 23 22 21 20 19 19 19 19 18 18 18 17 17 17 17 16 16 16 16 15 15 14 15 15 15 15 15 15 15 15 15 15 15 15 15 16
28 28 27 26 26 25 25 25 24 23 21 21 20 20 19 19 19 19 18 18 18 18 18 17 18 17 17 17 16 16 16 16 16 16 16 16 17 17 16 16 17 17 17
28 28 27 27 27 26 25 25 25 24 23 22 21 21 21 20 20 20 20 19 18 19 19 19 19 19 18 18 18 17 17 17 17 17 17 18 18 18 18 18 19 19 19
29 29 28 27 27 27 26 25 26 26 25 23 23 22 22 21 21 21 20 20 20 19 20 20 20 20 20 20 19 19 18 18 18 18 19 19 19 20 20 20 20 21 21
30 29 30 29 28 28 27 26 26 27 26 25 24 23 23 23 22 22 21 21 21 20 20 20 20 21 21 21 20 20 20 19 19 19 20 20 20 21 21 21 22 22 22
30 30 30 30 29 29 28 27 27 27 27 26 26 25 24 24 23 23 22 22 22 21 21 21 21 22 22 22 22 21 21 21 21 21 21 21 21 21 22 22 22 22 23
30 30 31 30 30 29 29 28 27 27 27 27 27 26 25 25 25 24 24 24 23 22 22 22 22 23 23 23 22 22 22 22 22 22 22 22 22 23 23 22 23 23 23
30 31 30 30 30 30 30 29 28 27 27 28 28 27 26 26 25 24 25 25 25 24 23 22 22 23 23 24 24 23 23 23 24 23 23 23 24 24 23 23 24 24 24
30 31 31 30 30 31 31 30 29 28 28 28 28 28 28 27 26 26 27 26 25 25 24 23 23 23 23 24 24 24 24 24 25 24 24 24 24 24 24 25 25 25 26
29 30 31 31 30 30 30 30 30 29 28 29 29 29 29 28 28 27 27 27 26 25 25 24 24 24 24 24 25 26 26 26 26 26 25 25 25 26 26 26 26 26 27
28 28 29 30 31 31 31 32 31 30 28 30 31 31 31 29 29 29 29 29 28 27 27 27 26 26 25 25 26 26 26 27 27 27 27 27 27 27 28 28 27 27 28
27 27 27 29 30 30 32 33 33 33 30 29 30 31 32 31 31 30 31 31 30 29 29 28 28 27 27 27 27 27 28 28 28 28 29 29 29 29 29 29 28 28 28
26 27 28 27 29 31 31 32 32 33 31 30 31 32 33 33 32 32 32 32 32 32 31 31 30 30 30 29 29 30 30 30 30 30 30 31 30 30 30 30 30 30 29
25 27 27 27 28 30 31 31 31 32 31 31 32 33 33 33 33 33 33 33 34 34 33 33 32 32 32 32 32 32 32 32 32 32 32 31 31 31 30 30 30 30 30
27 27 27 28 28 29 29 31 32 32 31 31 32 32 33 34 34 34 35 35 35 35 35 34 34 34 34 34 34 34 34 33 34 33 33 32 32 32 31 31 31 32 32
27 29 29 28 29 30 30 31 32 33 32 31 32 31 33 35 35 35 36 36 36 36 36 36 37 37 36 35 35 35 35 35 35 34 34 34 33 33 33 33 33 33 33
26 27 28 28 28 30 30 31 33 34 34 32 33 33 33 35 37 37 37 37 37 37 37 37 38 38 38 37 37 37 36 35 34 34 34 34 34 33 34 34 34 34 34
26 26 26 27 28 30 31 32 34 34 34 33 33 34 34 36 38 39 39 38 38 39 38 39 39 39 39 39 38 37 36 35 34 34 34 34 34 34 34 35 35 35 35
26 27 27 28 28 30 31 32 33 34 35 35 34 35 35 36 38 39 39 39 39 39 39 39 39 39 38 38 38 37 37 36 36 36 36 36 36 36 36 36 36 37 36
27 28 29 29 29 30 31 33 33 33 35 36 35 35 36 37 38 40 40 40 40 40 40 41 40 40 40 39 39 39 39 38 37 37 37 38 37 38 38 37 37 37 36

GEFSSE_500_meanwind_204.txt.gz
Wind_Speed
16 15 14 14 13 13 13 14 15 15 14 14 13 13 13 13 13 12 12 11 10 9 8 8 7 7 6 6 5 5 4 4 4 4 4 4 4 4 4 5 6 6 6
18 17 16 16 15 15 15 15 15 15 15 15 15 15 14 14 14 13 13 12 11 10 9 8 8 8 7 7 6 6 5 5 5 5 5 5 5 5 6 6 6 7 7
20 19 18 18 17 16 17 16 16 16 16 16 16 16 15 15 15 14 14 13 12 11 10 10 9 9 8 8 7 7 7 7 7 6 6 7 7 7 7 7 8 8 8
22 21 21 19 18 18 18 18 18 18 17 17 17 16 16 16 16 16 15 15 13 13 12 11 10 10 9 9 8 8 8 8 8 8 8 8 8 8 8 8 9 9 9
23 23 22 22 21 20 20 19 19 19 19 18 18 17 17 17 17 17 16 16 15 14 13 13 12 12 11 10 10 10 9 9 10 10 10 10 10 10 10 10 10 10 10
25 25 24 24 23 22 21 21 21 20 20 20 19 18 18 17 17 17 17 17 16 15 14 14 13 13 13 12 12 11 11 11 11 11 11 11 11 11 11 11 12 12 12
27 26 26 25 24 23 23 22 22 21 21 21 20 20 19 18 18 17 17 18 17 16 16 15 15 15 15 14 14 13 13 13 13 13 12 12 12 12 12 12 13 13 13
29 28 27 26 25 25 24 24 23 23 23 22 22 21 20 20 19 19 18 18 17 17 17 17 16 16 16 15 15 15 14 14 14 14 14 14 14 13 13 14 14 14 14
29 29 29 28 28 28 26 25 24 24 24 24 23 23 22 21 21 20 19 19 18 18 18 18 18 17 17 17 17 16 16 16 15 15 15 15 15 15 15 15 15 15 15
31 30 30 29 29 29 28 27 26 25 25 25 24 24 23 22 22 21 21 20 19 19 19 19 19 18 18 18 18 18 18 17 17 17 17 16 16 16 16 16 17 17 17
31 31 31 31 30 31 30 29 28 27 27 26 26 25 25 24 23 22 21 21 20 20 19 19 19 19 18 19 19 19 19 18 18 18 18 17 17 17 17 17 17 18 18
32 31 31 31 31 32 31 30 29 29 29 28 27 27 26 25 24 23 22 21 21 21 20 20 20 20 19 19 19 20 19 19 19 19 19 18 18 18 18 18 18 18 18
33 32 32 32 32 32 32 32 31 30 30 30 29 28 27 27 26 25 24 23 22 21 21 20 21 21 20 20 20 20 20 19 19 19 19 19 19 19 19 18 18 19 19
33 33 33 33 33 33 33 33 32 32 31 30 30 29 29 28 27 26 25 24 23 22 21 21 21 21 21 21 21 21 21 20 20 20 20 20 20 20 20 19 19 20 20
34 33 33 33 33 33 34 34 34 33 32 32 31 30 29 29 28 27 26 25 25 24 23 23 22 22 22 22 22 22 22 22 22 21 21 21 22 22 21 21 21 21 21
35 34 34 33 32 34 35 34 34 34 33 33 33 32 30 30 30 28 27 27 27 26 25 24 24 23 24 23 23 23 23 23 23 23 23 22 23 23 23 23 23 22 22
35 35 34 32 32 33 34 35 35 34 34 34 34 33 32 31 31 30 29 28 28 28 28 27 26 25 25 24 25 25 25 25 25 25 24 24 24 24 24 25 25 24 25
34 34 33 33 33 34 35 36 36 36 36 36 36 34 34 33 33 32 30 29 30 30 29 29 28 28 27 27 27 28 27 27 26 26 26 26 26 25 26 26 26 26 26
32 32 32 31 32 34 34 35 36 35 37 37 36 35 34 34 33 33 32 32 32 32 32 31 31 31 30 29 29 29 29 29 28 28 28 27 27 27 27 27 28 28 28
31 31 31 31 32 34 35 36 36 36 36 37 36 36 36 36 35 35 35 34 34 33 33 33 33 33 32 32 32 31 31 31 31 30 29 29 29 29 29 29 29 29 29
30 28 29 29 30 32 34 35 35 36 36 36 35 35 35 36 36 36 37 35 35 35 34 34 35 34 34 34 33 32 33 32 32 31 31 31 30 30 30 30 30 30 30
30 29 28 29 30 31 33 34 34 35 36 36 36 35 36 37 36 36 37 37 37 36 36 34 35 35 35 34 34 34 34 34 34 33 33 32 32 32 31 31 30 31 31
31 29 29 28 29 29 31 32 34 36 36 35 35 35 36 38 38 37 36 38 38 38 37 36 36 36 36 36 35 35 34 35 34 34 34 34 34 33 33 33 32 32 32
31 31 31 30 29 31 31 32 34 35 35 35 35 35 36 37 38 38 38 39 39 39 39 38 36 36 37 37 37 37 36 36 36 35 35 35 35 35 34 34 33 33 33
31 32 32 31 30 30 31 32 33 34 33 34 35 36 36 37 38 39 38 39 40 40 40 40 38 37 37 37 38 38 38 37 37 37 37 37 37 36 36 36 35 35 35
33 34 33 31 32 31 31 31 33 34 33 33 35 36 36 37 39 40 39 39 40 41 41 41 41 40 40 40 40 40 39 39 39 39 39 38 38 37 38 38 37 36 36

GEFSSE_500_meanwind_210.txt.gz
Wind_Speed
17 16 16 15 15 15 15 15 15 15 14 14 13 13 13 13 13 12 12 12 11 10 10 9 8 8 7 6 5 4 4 3 3 2 1 1 2 3 4 4 5 6 6
18 18 17 17 16 16 16 16 16 16 15 15 14 14 14 14 14 13 13 13 12 11 11 10 9 9 8 7 7 6 5 4 3 3 3 3 3 4 4 5 5 6 6
20 20 19 19 18 17 16 16 17 17 16 16 15 15 14 14 14 14 14 13 13 13 12 11 11 10 9 9 8 7 6 5 5 4 4 5 5 5 5 6 6 7 7
22 22 21 20 19 18 18 18 18 18 17 17 16 16 15 15 15 14 14 14 14 14 13 13 12 11 11 10 10 9 7 7 6 6 5 6 6 6 6 7 7 8 8
24 23 23 23 21 20 19 19 19 19 18 18 18 18 17 17 16 16 15 15 15 14 14 14 13 13 12 11 11 10 9 8 8 7 7 7 7 7 8 8 8 9 9
25 25 25 24 23 22 21 20 20 20 20 20 20 19 19 18 18 17 17 16 15 16 15 15 14 14 13 13 12 11 11 10 9 9 8 8 8 9 9 9 10 10 10
26 26 26 26 25 24 24 22 22 22 21 21 21 20 20 19 19 18 18 17 16 16 16 16 15 15 14 14 13 13 12 12 11 10 10 10 10 10 10 11 11 11 11
28 27 27 27 27 26 26 25 24 23 23 22 22 21 21 20 20 19 19 18 17 17 17 17 16 16 15 15 14 14 13 13 12 12 11 11 11 12 12 12 12 12 12
30 30 29 28 27 27 27 26 25 25 24 24 23 23 22 22 21 20 20 19 18 17 17 17 17 17 16 16 15 15 14 14 13 13 12 12 12 13 13 13 13 13 13
32 31 31 30 29 28 28 28 27 26 26 26 25 24 23 23 22 21 21 21 20 19 18 18 18 17 17 17 17 16 16 15 15 14 14 13 13 13 14 14 14 14 14
32 32 33 32 31 30 29 29 29 28 28 27 26 26 25 24 24 23 22 22 20 20 19 19 18 18 18 18 18 17 17 16 16 15 15 14 13 13 14 14 14 14 14
32 33 33 33 33 32 31 30 30 31 30 29 28 28 27 26 25 24 24 23 22 21 20 19 19 19 19 19 18 18 18 17 17 16 16 15 15 15 14 15 15 15 15
34 34 34 35 35 34 32 31 31 32 32 31 30 29 29 28 27 26 25 25 24 22 21 20 19 19 19 19 19 19 19 19 18 18 17 17 16 16 16 16 16 16 16
35 35 35 36 36 35 34 33 33 33 33 33 32 31 30 29 29 28 27 26 25 24 22 21 20 20 20 20 20 20 20 20 19 19 18 18 17 17 17 16 17 17 17
36 36 36 37 37 36 36 35 35 34 35 34 33 32 32 31 30 29 29 27 26 25 24 23 22 22 21 20 20 20 20 20 20 20 20 19 18 18 18 18 18 18 18
37 36 36 37 37 37 36 36 36 36 36 36 35 33 33 32 31 30 30 29 28 26 25 24 24 23 22 22 22 22 21 21 21 21 21 20 20 19 19 19 20 20 20
37 37 37 37 38 38 37 37 37 37 37 37 36 35 34 34 33 32 31 31 30 29 28 27 25 25 24 24 23 23 23 23 23 22 22 22 22 22 21 22 22 22 22
37 37 37 38 39 38 38 38 39 38 38 38 38 37 36 35 35 34 33 32 32 31 30 29 28 27 26 26 26 26 26 26 25 24 24 24 24 24 24 24 24 24 24
37 37 37 38 39 38 38 38 38 39 39 38 38 38 38 37 36 35 35 34 34 34 32 31 30 29 28 28 28 28 28 28 27 26 26 25 25 26 26 25 25 25 26
37 37 37 37 39 39 37 37 38 39 39 39 38 38 39 38 38 37 37 36 36 36 35 34 33 32 31 30 30 30 30 29 29 28 28 27 27 27 27 27 27 26 27
38 38 37 36 37 38 37 38 38 38 39 39 38 39 39 39 39 40 39 38 38 37 37 36 35 34 33 32 32 31 32 31 31 30 30 30 29 29 29 29 28 28 28
38 38 37 36 37 38 37 37 37 37 38 38 39 40 40 40 40 40 39 39 39 39 38 37 36 35 35 34 33 33 33 33 33 33 32 32 31 31 30 30 30 30 30
38 38 38 37 37 38 37 38 38 38 37 38 38 39 40 40 40 41 41 40 40 39 39 38 37 37 37 36 36 36 35 34 34 35 34 34 34 33 33 32 31 32 32
39 38 37 36 37 38 36 37 37 37 37 37 38 39 40 41 41 41 41 40 40 41 40 40 40 39 38 38 38 37 37 35 35 35 35 35 35 35 34 34 34 34 34
39 39 38 35 38 38 38 39 38 37 36 36 38 39 39 40 40 40 41 40 40 40 41 41 41 41 41 40 39 38 38 36 36 35 36 36 36 37 37 36 36 36 36
39 39 38 38 38 40 40 39 38 38 37 35 37 38 39 39 39 39 40 41 42 42 42 42 42 41 42 41 40 40 39 38 37 37 37 37 37 38 38 38 38 38 38

GEFSSE_500_meanwind_216.txt.gz
Wind_Speed
14 14 14 14 14 13 13 14 14 13 13 13 12 11 11 11 10 10 10 9 9 9 9 9 9 9 8 8 7 6 5 4 4 3 2 2 1 1 1 2 3 4 5
15 16 16 16 16 15 14 15 15 15 15 14 14 13 12 12 12 12 11 10 10 11 10 10 10 10 9 9 8 8 7 6 5 4 3 3 2 2 2 2 3 4 5
17 18 18 18 17 17 16 15 16 16 16 16 15 14 14 13 13 13 12 12 11 11 12 11 11 11 10 10 9 9 8 7 6 5 4 4 3 3 3 3 4 4 5
19 19 20 20 19 19 18 17 17 17 17 17 17 16 16 15 14 14 13 13 13 12 12 13 12 12 12 11 11 10 9 8 8 7 6 5 5 4 4 5 5 6 6
20 21 21 21 21 20 19 19 18 18 18 19 18 18 17 16 15 15 15 14 14 13 13 14 14 13 13 13 12 11 10 10 9 8 7 6 6 6 6 6 7 7 7
21 21 21 22 22 21 21 20 20 19 19 20 19 19 18 18 17 16 16 16 15 15 14 15 15 15 14 13 13 12 11 11 10 9 9 8 7 7 7 7 8 8 8
22 22 22 22 22 22 22 22 21 21 20 21 21 20 20 19 18 18 17 17 17 16 16 16 16 16 15 15 14 13 12 12 11 10 10 9 9 8 8 8 9 9 9
25 25 24 24 24 23 23 23 23 23 22 22 23 22 21 21 20 19 19 19 18 17 17 17 18 17 16 16 15 14 14 13 12 11 11 10 10 10 10 9 10 10 11
26 26 26 26 25 25 25 24 24 24 24 24 24 24 23 22 22 21 21 20 19 18 18 18 18 17 17 17 17 16 15 15 14 13 12 12 11 11 11 11 11 11 11
28 28 28 28 27 27 26 26 25 26 25 25 25 25 25 24 23 23 22 22 21 20 19 19 19 18 18 17 17 17 17 16 15 15 14 14 13 13 12 12 12 11 11
29 29 29 29 29 29 28 28 28 27 27 26 26 26 26 25 25 24 24 23 23 22 21 20 19 19 18 18 18 18 18 18 17 17 16 15 14 14 13 13 13 13 13
29 30 30 30 30 30 30 30 30 29 28 28 27 27 27 27 27 26 26 25 24 23 22 21 20 20 19 19 19 19 19 19 19 18 17 16 16 15 15 14 14 14 14
31 31 31 32 32 31 31 31 31 31 31 31 30 29 28 28 28 28 27 26 25 24 23 22 21 21 20 19 19 19 20 20 19 19 19 18 17 17 17 16 15 15 14
33 33 33 33 33 33 33 33 33 33 33 33 32 30 30 29 29 29 28 28 26 25 25 23 22 22 21 20 19 19 19 20 20 20 20 19 19 18 18 18 17 16 16
33 34 33 34 35 35 35 35 35 35 34 34 34 32 31 31 31 30 29 29 28 27 26 25 24 23 22 21 21 20 20 20 20 20 20 20 20 20 20 19 19 18 18
33 35 35 34 35 36 36 36 37 37 36 36 35 34 33 32 31 31 30 31 30 29 28 27 26 26 24 23 22 22 21 21 21 21 21 21 21 21 21 21 21 20 20
33 34 35 35 35 36 36 36 37 38 37 37 36 36 35 34 33 32 32 32 32 32 31 30 29 28 27 26 25 24 24 23 22 22 22 22 22 21 22 22 22 22 22
35 36 37 37 36 36 37 37 38 38 38 38 37 37 37 36 36 34 33 34 33 33 33 32 31 30 29 29 27 27 26 25 25 25 24 24 24 24 23 23 23 24 23
36 37 38 38 37 37 37 38 38 39 39 39 38 37 38 38 37 36 35 35 35 34 34 34 33 32 31 31 30 29 29 28 27 27 27 27 27 26 26 25 25 25 25
37 38 39 40 39 39 39 39 39 39 40 40 39 39 39 39 39 38 36 36 37 36 35 35 35 34 33 33 32 32 31 30 29 30 30 30 29 28 28 27 27 27 27
37 38 39 40 40 40 40 39 39 39 40 41 42 41 41 40 41 41 40 39 39 38 38 37 36 36 35 35 34 33 33 32 32 31 31 31 31 30 30 30 30 30 30
37 38 38 39 40 40 41 41 40 39 40 41 42 42 43 42 42 42 41 40 40 40 39 39 39 38 38 37 36 35 35 35 34 33 33 33 33 33 32 32 32 31 31
38 38 39 39 40 41 41 43 42 41 41 42 42 43 43 43 43 42 42 42 42 41 40 40 41 41 40 39 39 38 37 37 36 35 33 34 35 35 35 35 35 34 33
39 39 40 40 41 41 42 44 43 42 42 42 43 44 43 43 43 42 42 43 42 42 42 42 42 41 42 41 40 39 38 38 37 36 36 35 35 36 36 36 36 36 35
39 39 40 41 41 42 42 44 45 44 43 43 44 45 45 44 43 43 43 42 43 43 43 43 43 42 42 42 40 40 39 39 38 37 37 37 37 38 38 37 37 37 37
39 39 39 40 42 42 42 43 44 44 43 43 44 45 45 45 44 42 43 43 43 44 44 44 43 43 42 42 42 42 41 40 40 39 38 38 37 38 38 38 37 38 38

GEFSSE_500_meanwind_222.txt.gz
Wind_Speed
13 13 13 13 13 12 11 11 11 11 11 10 10 9 8 8 7 7 6 6 6 5 5 5 5 5 5 5 4 4 3 3 2 2 1 1 2 2 3 3 4 5 6
15 14 14 14 14 14 13 12 12 12 12 12 11 10 10 9 8 8 7 7 7 6 6 6 6 6 6 6 6 5 4 4 4 3 3 2 2 2 3 3 4 4 5
17 16 16 15 15 15 14 14 14 13 13 13 12 12 11 10 10 9 9 8 8 8 7 7 7 7 7 7 7 6 5 5 5 4 4 4 3 3 3 4 4 4 5
17 17 17 16 16 16 16 15 15 14 14 13 13 13 13 12 11 10 10 10 9 9 8 8 8 8 8 7 7 7 7 6 6 5 5 5 4 4 3 4 4 5 5
18 18 18 17 17 17 16 16 16 16 15 15 15 14 14 13 13 12 11 11 10 10 9 9 9 8 9 8 8 8 8 7 7 7 6 6 5 5 5 4 4 5 6
20 19 19 18 18 18 18 17 17 17 17 16 16 16 15 15 14 14 13 12 12 11 10 10 10 10 10 10 9 9 9 9 8 8 7 7 7 6 6 6 6 6 7
22 21 21 20 19 19 19 18 18 18 17 17 16 17 17 16 15 15 15 14 13 12 12 12 11 11 11 11 11 11 11 10 10 9 9 8 8 8 8 8 8 8 8
23 23 22 22 21 21 20 20 19 19 19 18 17 17 17 17 17 16 16 16 15 14 13 13 13 13 13 12 12 12 12 12 11 11 10 10 10 10 9 9 9 10 10
25 24 24 24 24 23 22 22 21 21 20 20 19 19 19 19 18 18 18 17 16 16 15 14 14 14 14 14 13 13 13 13 13 12 12 11 11 11 11 11 11 11 11
26 26 26 26 26 25 24 24 23 23 22 21 21 20 20 20 20 19 19 19 18 18 17 16 15 15 15 15 15 14 14 14 14 14 14 13 13 13 12 12 12 12 12
28 28 27 27 27 27 26 26 25 24 24 24 23 22 22 21 21 21 20 20 20 20 19 18 17 17 16 16 16 16 16 16 17 16 16 15 15 14 14 14 13 13 13
30 30 29 29 29 29 28 28 27 26 26 25 25 24 24 23 23 23 22 22 21 21 21 20 19 18 18 17 17 17 17 18 18 18 17 17 17 16 16 15 15 15 14
31 31 32 32 31 31 30 30 30 29 28 27 27 27 26 26 25 25 24 23 23 22 22 22 21 20 19 19 19 19 19 19 18 18 18 18 18 17 17 17 17 16 16
31 31 32 33 33 33 32 32 32 31 31 30 29 29 29 28 27 26 26 26 25 24 24 23 23 22 21 21 21 21 20 20 19 19 19 18 18 18 18 18 17 17 16
32 32 32 33 33 33 33 33 32 33 33 32 31 31 31 30 29 29 28 27 27 26 25 25 24 24 23 22 22 21 21 20 20 20 19 19 19 19 19 19 18 18 18
32 32 33 33 34 34 34 34 33 33 33 33 33 33 33 33 32 31 30 30 29 28 27 26 25 25 24 23 22 22 21 21 21 21 20 20 20 20 20 20 20 20 20
34 34 34 34 35 35 36 35 35 35 34 34 34 34 34 34 34 33 32 32 31 30 29 28 27 27 26 25 25 24 23 23 22 22 21 21 22 21 21 21 21 21 21
36 36 36 35 35 35 36 36 37 37 37 36 36 36 36 36 35 34 34 34 33 33 31 30 30 29 28 28 27 26 25 25 25 24 23 23 23 23 23 22 22 23 23
37 37 37 37 36 36 36 36 37 38 38 38 38 37 38 38 37 36 35 35 35 34 33 33 32 31 30 30 29 28 28 27 27 26 26 26 26 25 25 25 24 25 25
38 37 38 38 38 37 37 38 38 38 38 38 39 39 39 39 39 38 37 38 37 36 35 35 34 33 32 32 32 31 30 29 29 28 28 28 28 27 27 27 27 27 27
38 38 38 38 39 39 38 38 39 38 38 39 39 40 40 41 41 40 39 39 39 38 36 37 36 35 34 33 33 33 32 32 31 30 30 29 29 30 30 29 29 29 29
39 39 39 39 39 40 40 40 40 40 39 39 39 40 41 42 43 43 42 41 40 40 38 37 38 37 36 36 36 35 34 33 32 31 32 31 31 31 31 31 31 31 31
41 41 40 40 40 41 41 41 41 40 40 40 40 41 42 42 43 44 43 43 43 42 41 40 40 39 38 38 38 37 36 36 33 33 33 33 33 33 33 33 33 33 33
42 42 42 41 42 42 41 41 41 40 40 40 41 42 42 43 43 43 44 44 44 43 42 42 42 42 41 41 40 40 39 38 36 35 35 35 34 34 34 35 35 35 35
43 43 43 43 43 43 42 42 42 40 41 41 42 42 42 43 44 44 45 45 45 44 43 43 43 43 42 42 42 41 40 40 38 36 36 36 36 36 36 36 37 37 38
43 44 44 44 43 43 43 43 42 42 42 42 42 43 43 43 44 44 45 46 45 45 44 43 43 43 42 41 41 42 41 41 40 39 38 38 38 38 38 38 38 39 39

GEFSSE_500_meanwind_228.txt.gz
Wind_Speed
14 13 13 13 13 13 12 12 12 12 12 12 12 12 12 11 11 11 10 9 9 8 7 7 6 6 5 5 4 4 4 4 3 2 2 2 2 2 2 2 3 4 5
15 15 14 14 14 13 13 13 13 13 13 13 13 13 12 12 12 11 11 10 9 8 8 7 7 6 6 5 5 5 4 4 3 2 2 1 1 1 1 1 2 3 3
16 16 16 15 15 15 14 14 14 14 14 14 14 14 14 13 13 12 11 11 10 9 8 7 7 7 6 6 6 6 5 4 3 3 2 2 2 1 0 1 1 2 3
17 17 17 16 16 15 15 15 15 15 15 15 15 15 15 15 14 13 12 12 11 10 9 8 8 8 7 7 7 7 6 5 4 4 3 3 2 2 1 1 1 2 3
19 19 18 18 17 16 16 15 16 16 16 16 16 16 16 16 16 15 14 13 12 11 10 9 9 9 8 8 8 8 7 6 6 5 5 4 4 3 3 3 3 3 4
20 20 20 19 18 18 17 16 16 16 16 17 17 17 17 17 17 16 15 14 13 12 11 11 10 10 9 9 9 9 8 8 7 6 6 6 5 5 5 5 5 5 5
22 22 21 20 20 19 18 18 17 17 17 16 17 18 17 17 17 17 17 16 15 14 13 12 12 11 11 10 10 10 10 9 9 8 8 7 7 6 6 7 7 7 7
24 23 23 22 21 20 20 20 19 19 18 18 17 18 18 18 18 18 18 17 16 15 14 13 13 12 12 12 11 11 11 11 11 10 10 9 8 8 8 8 9 9 9
25 25 24 23 23 23 22 22 21 21 20 19 19 18 18 18 18 19 18 18 18 17 16 15 14 14 13 13 13 13 13 13 12 12 11 11 10 10 10 10 10 10 10
26 26 26 25 24 24 24 23 23 22 22 21 20 20 19 19 19 19 19 19 19 19 18 17 16 15 15 15 14 14 14 14 14 13 13 12 12 11 11 11 11 11 11
28 27 27 27 26 25 25 25 25 24 24 23 23 22 21 20 20 20 20 20 19 19 19 19 18 17 17 16 16 16 15 15 15 14 14 14 13 12 12 12 12 13 12
29 29 28 28 27 27 27 27 27 26 26 25 25 25 24 23 22 22 22 21 21 21 20 20 19 19 18 17 17 17 16 16 16 16 15 15 14 14 14 14 14 14 14
30 30 30 30 29 29 29 29 29 28 28 27 27 27 26 25 24 23 23 23 23 22 22 21 20 19 19 19 18 17 17 17 17 17 17 16 16 16 15 15 15 15 14
32 32 32 32 31 30 31 30 30 30 30 30 29 29 28 27 26 25 25 25 25 24 24 23 22 21 20 20 19 19 18 18 18 18 18 18 17 17 17 17 16 16 15
33 33 33 34 32 32 32 32 32 32 31 31 31 31 30 30 29 27 27 27 27 27 26 26 25 24 23 22 21 20 20 20 20 20 20 19 19 19 19 18 18 18 18
34 34 34 35 34 34 34 34 33 33 33 33 32 32 32 32 31 30 30 30 29 29 29 28 27 26 25 24 23 23 22 22 21 22 22 21 21 21 20 20 19 19 19
36 35 35 36 36 35 35 35 35 35 35 34 34 34 34 34 33 32 32 32 32 31 31 30 29 28 28 27 26 25 24 24 23 23 23 23 23 22 22 22 21 21 21
37 36 36 36 36 36 36 36 36 36 36 36 35 36 36 35 35 34 33 33 34 34 33 33 32 30 30 29 28 27 27 27 26 25 25 25 25 25 24 24 24 23 23
39 38 38 37 36 37 36 36 36 37 37 37 36 36 37 37 36 36 35 35 35 35 35 34 34 33 32 31 31 30 29 29 29 28 28 28 27 27 27 26 26 26 26
41 40 39 38 37 37 37 37 37 37 38 38 38 37 37 37 37 38 37 37 37 37 36 36 35 35 35 34 34 33 32 31 31 31 30 30 29 29 29 28 28 28 28
42 41 40 40 39 38 38 38 38 38 38 38 39 39 39 39 39 39 39 39 39 38 38 38 37 37 37 37 36 35 35 34 33 32 32 31 30 30 30 30 30 30 30
43 42 42 41 41 40 40 40 40 40 40 39 40 40 40 40 40 40 40 41 41 40 40 40 39 38 38 38 38 38 37 36 35 34 34 34 33 32 32 31 32 32 31
44 43 43 43 42 42 41 41 41 42 41 41 41 41 41 41 41 41 40 41 42 42 42 42 42 40 40 40 39 39 38 38 37 36 35 36 36 35 34 34 34 34 33
45 45 44 44 43 43 42 42 42 42 41 41 42 42 42 42 41 41 41 42 42 43 43 44 43 42 41 41 40 40 40 39 39 38 37 37 38 38 37 36 35 35 35
47 46 45 45 45 44 43 42 42 42 42 42 42 42 42 42 43 43 43 42 43 43 43 44 43 43 42 42 42 41 41 41 41 40 39 38 39 39 38 37 37 36 36
48 47 46 46 45 45 44 43 43 43 43 43 43 43 43 42 43 44 44 44 43 43 44 44 45 44 43 43 43 42 42 41 41 42 41 40 40 40 39 39 38 38 38